CW1084 Weather Reports


Display with metric or nautical units.
time (UTC)temp
F
wind
direction
speed
MPH
gust
MPH
rain 1hr
in
rain 24hr
in
rain mn
in
humidity
%
barometer
mb
20260509223547 68 179 0.0 4.0 0.00 0.00 0.00 36 1007.1
20260509223042 68 181 1.0 5.0 0.00 0.00 0.00 36 1007.1
20260509222537 68 181 1.0 9.0 0.00 0.00 0.00 36 1007.2
20260509222320 68 187 1.0 9.0 0.00 0.00 0.00 36 1007.2
20260509221532 68 134 1.0 6.0 0.00 0.00 0.00 36 1007.1
20260509221101 68 127 1.0 8.0 0.00 0.00 0.00 36 1007.2
20260509220526 69 146 1.0 8.0 0.00 0.00 0.00 37 1007.1
20260509220301 69 158 1.0 8.0 0.00 0.00 0.00 37 1007.1
20260509215518 69 154 1.0 8.0 0.00 0.00 0.00 37 1007.1
20260509215015 69 148 1.0 8.0 0.00 0.00 0.00 38 1007.0
20260509214623 70 171 1.0 9.0 0.00 0.00 0.00 39 1007.0
20260509214531 70 150 1.0 8.0 0.00 0.00 0.00 38 1007.0
20260509213503 70 120 1.0 11.0 0.00 0.00 0.00 39 1006.9
20260509213008 70 157 1.0 11.0 0.00 0.00 0.00 39 1007.0
20260509212502 70 178 1.0 7.0 0.00 0.00 0.00 39 1007.0
20260509212030 70 180 1.0 9.0 0.00 0.00 0.00 39 1006.9
20260509211501 70 148 1.0 9.0 0.00 0.00 0.00 39 1006.9
20260509210951 70 163 1.0 9.0 0.00 0.00 0.00 39 1006.9
20260509210212 69 162 1.0 9.0 0.00 0.00 0.00 39 1006.8
20260509205641 69 163 1.0 6.0 0.00 0.00 0.00 40 1006.8
20260509205338 68 146 1.0 6.0 0.00 0.00 0.00 40 1006.8
20260509204601 68 153 1.0 7.0 0.00 0.00 0.00 40 1006.7
20260509203944 68 160 0.0 6.0 0.00 0.00 0.00 41 1006.9
20260509203415 68 114 1.0 6.0 0.00 0.00 0.00 42 1007.0
20260509202858 68 189 0.0 6.0 0.00 0.00 0.00 43 1007.0
20260509202325 68 136 0.0 8.0 0.00 0.00 0.00 42 1007.0
20260509201745 69 156 0.0 5.0 0.00 0.00 0.00 42 1007.1
20260509201427 69 155 0.0 5.0 0.00 0.00 0.00 43 1007.1
20260509200558 69 155 1.0 7.0 0.00 0.00 0.00 42 1007.1
20260509200024 69 155 1.0 7.0 0.00 0.00 0.00 42 1007.1
20260509195823 70 133 1.0 7.0 0.00 0.00 0.00 42 1007.3
20260509195628 70 133 1.0 7.0 0.00 0.00 0.00 42 1007.3
20260509195152 70 112 1.0 7.0 0.00 0.00 0.00 41 1007.4
20260509194313 70 248 0.0 7.0 0.00 0.00 0.00 41 1007.5
20260509193747 71 163 1.0 7.0 0.00 0.00 0.00 41 1007.6
20260509193242 71 118 1.0 5.0 0.00 0.00 0.00 40 1007.6
20260509192710 71 178 1.0 9.0 0.00 0.00 0.00 40 1007.7
20260509192017 71 206 1.0 8.0 0.00 0.00 0.00 39 1007.8
20260509191519 71 176 1.0 8.0 0.00 0.00 0.00 40 1007.7
20260509191139 71 153 1.0 8.0 0.00 0.00 0.00 43 1008.1
20260509191100 70 158 1.0 8.0 0.00 0.00 0.00 42 1008.1
20260509190933 71 143 1.0 8.0 0.00 0.00 0.00 41 1007.7
20260509185428 72 148 1.0 10.0 0.00 0.00 0.00 42 1008.2
20260509184635 73 149 2.0 10.0 0.00 0.00 0.00 42 1008.2
20260509184108 73 132 1.0 7.0 0.00 0.00 0.00 41 1008.3
20260509183537 73 156 1.0 9.0 0.00 0.00 0.00 41 1008.3
20260509183233 74 147 1.0 7.0 0.00 0.00 0.00 40 1008.3
20260509183013 74 147 1.0 7.0 0.00 0.00 0.00 40 1008.3
20260509182443 74 179 1.0 7.0 0.00 0.00 0.00 39 1008.3
20260509182252 73 205 1.0 7.0 0.00 0.00 0.00 38 1008.5
20260509181342 72 153 0.0 7.0 0.00 0.00 0.00 37 1008.5
20260509180815 72 173 0.0 5.0 0.00 0.00 0.00 36 1008.6
20260509180258 71 172 1.0 7.0 0.00 0.00 0.00 36 1008.7
20260509175944 70 173 1.0 7.0 0.00 0.00 0.00 37 1008.9
20260509175353 69 173 1.0 5.0 0.00 0.00 0.00 37 1008.9
20260509174617 69 168 0.0 4.0 0.00 0.00 0.00 37 1008.8
20260509174220 69 189 0.0 5.0 0.00 0.00 0.00 36 1008.9
20260509174110 69 189 0.0 3.0 0.00 0.00 0.00 36 1008.7
20260509173234 69 190 0.0 5.0 0.00 0.00 0.00 37 1009.0
20260509172404 69 196 0.0 2.0 0.00 0.01 0.00 39 1009.0
20260509171826 69 196 0.0 1.0 0.00 0.01 0.00 40 1009.1
20260509171253 69 196 0.0 6.0 0.00 0.01 0.00 42 1009.1
20260509170736 70 198 1.0 6.0 0.00 0.01 0.00 43 1009.1
20260509170154 70 199 2.0 8.0 0.00 0.01 0.00 45 1009.1
20260509165616 71 161 1.0 8.0 0.00 0.01 0.00 45 1009.1
20260509165049 72 155 0.0 7.0 0.00 0.01 0.00 45 1009.1
20260509164523 72 149 1.0 9.0 0.00 0.01 0.00 43 1009.0
20260509164215 71 146 1.0 9.0 0.00 0.01 0.00 43 1009.0
20260509163422 71 160 1.0 5.0 0.00 0.01 0.00 43 1009.2
20260509163019 71 199 1.0 7.0 0.00 0.01 0.00 43 1009.2
20260509162307 71 187 0.0 7.0 0.00 0.01 0.00 43 1009.2
20260509161739 71 187 1.0 6.0 0.00 0.01 0.00 43 1009.4
20260509161657 71 251 1.0 6.0 0.00 0.01 0.00 42 1009.4
20260509161214 71 251 1.0 6.0 0.00 0.01 0.00 42 1009.4
20260509160855 71 282 1.0 10.0 0.00 0.01 0.00 42 1009.4
20260509160557 71 175 1.0 10.0 0.00 0.01 0.00 41 1009.5
20260509155540 71 195 1.0 9.0 0.00 0.01 0.00 41 1009.6
20260509155010 71 206 1.0 9.0 0.00 0.01 0.00 41 1009.5
20260509154709 71 228 1.0 8.0 0.00 0.01 0.00 40 1009.5
20260509154158 71 184 1.0 8.0 0.00 0.01 0.00 40 1009.5
20260509153944 71 184 1.0 8.0 0.00 0.01 0.00 40 1009.5
20260509153353 70 185 1.0 8.0 0.00 0.01 0.00 39 1009.3
20260509152819 69 186 1.0 8.0 0.00 0.01 0.00 39 1009.6
20260509152254 69 161 1.0 9.0 0.00 0.01 0.00 39 1009.7
20260509151729 69 157 1.0 9.0 0.00 0.01 0.00 39 1010.0
20260509151201 69 253 0.0 4.0 0.00 0.01 0.00 38 1010.0
20260509150634 69 253 0.0 6.0 0.00 0.01 0.00 38 1010.2
20260509150334 68 254 1.0 6.0 0.00 0.01 0.00 37 1010.3
20260509145528 68 253 1.0 10.0 0.00 0.01 0.00 37 1010.4
20260509145000 68 218 1.0 10.0 0.00 0.01 0.00 36 1010.5
20260509144706 67 147 1.0 8.0 0.00 0.01 0.00 36 1010.5
20260509143838 67 164 1.0 9.0 0.00 0.01 0.00 35 1010.5
20260509143313 67 207 1.0 9.0 0.00 0.01 0.00 35 1010.7
20260509143215 66 170 2.0 9.0 0.00 0.01 0.00 34 1010.6
20260509142210 66 152 1.0 9.0 0.00 0.01 0.00 34 1010.7
20260509141639 66 180 0.0 5.0 0.00 0.01 0.00 33 1010.7
20260509141108 66 180 0.0 5.0 0.00 0.01 0.00 33 1010.9
20260509140532 66 257 0.0 8.0 0.00 0.01 0.00 33 1010.9
20260509140000 66 257 0.0 1.0 0.00 0.01 0.00 32 1010.8
20260509135433 65 257 1.0 9.0 0.00 0.01 0.00 32 1010.9
20260509134859 65 154 1.0 8.0 0.00 0.01 0.00 30 1010.9
20260509134249 65 198 1.0 9.0 0.00 0.01 0.00 28 1010.9
20260509133727 65 173 1.0 8.0 0.00 0.01 0.00 27 1010.9
20260509133149 65 169 0.0 7.0 0.00 0.01 0.00 26 1011.0
20260509132835 64 225 0.0 5.0 0.00 0.01 0.00 25 1010.9
20260509132048 64 182 1.0 7.0 0.00 0.01 0.00 24 1010.9
20260509131528 64 187 1.0 7.0 0.00 0.01 0.00 23 1010.8
20260509131002 63 223 0.0 6.0 0.00 0.01 0.00 21 1010.9
20260509130439 63 236 1.0 5.0 0.00 0.01 0.00 20 1010.8
20260509125909 63 172 0.0 5.0 0.00 0.01 0.00 18 1010.9
20260509125342 62 172 0.0 6.0 0.00 0.01 0.00 16 1010.9
20260509124810 62 171 0.0 6.0 0.00 0.01 0.00 15 1011.0
20260509124239 62 184 0.0 7.0 0.00 0.01 0.00 14 1011.0
20260509123709 61 191 0.0 7.0 0.00 0.01 0.00 12 1011.0
20260509123132 61 194 0.0 6.0 0.00 0.01 0.00 12 1010.9
20260509122606 61 194 0.0 6.0 0.00 0.01 0.00 10 1010.9
20260509122040 61 265 0.0 5.0 0.00 0.01 0.00 8 1010.9
20260509121517 60 267 0.0 5.0 0.00 0.01 0.00 7 1010.9
20260509120953 60 194 1.0 10.0 0.00 0.01 0.00 7 1010.9
20260509120437 60 209 1.0 10.0 0.00 0.01 0.00 5 1011.0
20260509115905 60 161 0.0 8.0 0.00 0.01 0.00 1 1010.9
20260509115335 60 160 0.0 8.0 0.00 0.01 0.00 100 1010.9
20260509115029 60 237 0.0 4.0 0.00 0.01 0.00 100 1010.9
20260509114233 59 237 0.0 8.0 0.00 0.01 0.00 100 1011.0
20260509113936 59 238 1.0 8.0 0.00 0.01 0.00 100 1011.0
20260509113146 59 165 0.0 6.0 0.00 0.01 0.00 100 1010.9
20260509112628 59 165 0.0 6.0 0.00 0.01 0.00 100 1010.9
20260509112046 58 189 0.0 3.0 0.00 0.01 0.00 100 1010.9
20260509111515 58 189 1.0 7.0 0.00 0.01 0.00 100 1010.9
20260509110943 58 189 1.0 7.0 0.00 0.01 0.00 100 1010.9
20260509110641 58 202 0.0 6.0 0.00 0.01 0.00 100 1011.0
20260509110059 58 201 0.0 6.0 0.00 0.01 0.00 100 1011.1
20260509105253 58 173 0.0 6.0 0.00 0.01 0.00 100 1011.1
20260509104943 57 174 0.0 1.0 0.00 0.01 0.00 100 1011.0
20260509104154 57 175 0.0 10.0 0.00 0.01 0.00 100 1010.9
20260509103623 57 180 0.0 5.0 0.00 0.01 0.00 100 1010.9
20260509103054 57 186 0.0 4.0 0.00 0.01 0.00 100 1010.9
20260509102521 57 186 0.0 3.0 0.00 0.01 0.00 100 1011.0
20260509101953 57 183 0.0 8.0 0.00 0.01 0.00 100 1010.9
20260509101431 57 171 0.0 5.0 0.00 0.01 0.00 100 1010.9
20260509100902 57 173 0.0 0.0 0.00 0.01 0.00 100 1010.9
20260509100349 57 173 0.0 4.0 0.00 0.01 0.00 100 1010.8
20260509095740 57 172 0.0 5.0 0.00 0.01 0.00 100 1010.9
20260509095213 57 172 0.0 5.0 0.00 0.01 0.00 100 1010.9
20260509094644 57 172 0.0 8.0 0.00 0.01 0.00 100 1010.9
20260509094127 57 173 0.0 8.0 0.00 0.01 0.00 100 1010.9
20260509093550 57 171 0.0 2.0 0.00 0.01 0.00 100 1010.8
20260509093020 57 171 0.0 2.0 0.00 0.01 0.00 100 1010.9
20260509092453 57 171 0.0 1.0 0.00 0.01 0.00 100 1010.9
20260509091927 57 173 0.0 1.0 0.00 0.01 0.00 3 1010.8
20260509091402 57 173 0.0 1.0 0.00 0.01 0.00 5 1010.8
20260509090819 58 174 0.0 0.0 0.00 0.01 0.00 7 1010.7
20260509090231 58 173 0.0 0.0 0.00 0.01 0.00 8 1010.6
20260509085658 58 174 0.0 0.0 0.00 0.01 0.00 9 1010.7
20260509085122 58 169 0.0 0.0 0.00 0.01 0.00 10 1010.6
20260509084558 58 169 0.0 0.0 0.00 0.01 0.00 10 1010.7
20260509084300 58 169 0.0 5.0 0.00 0.01 0.00 11 1010.7
20260509083450 58 185 0.0 3.0 0.00 0.01 0.00 11 1010.7
20260509082405 58 185 0.0 4.0 0.00 0.01 0.00 12 1010.7
20260509082047 58 186 0.0 10.0 0.00 0.01 0.00 12 1010.8
20260509081250 58 226 0.0 10.0 0.00 0.01 0.00 13 1010.8
20260509080725 58 220 0.0 4.0 0.00 0.01 0.00 13 1010.9
20260509080206 58 320 1.0 12.0 0.00 0.01 0.00 14 1010.9
20260509075633 58 148 1.0 12.0 0.00 0.01 0.00 14 1010.9
20260509075114 58 177 0.0 10.0 0.00 0.01 0.00 14 1010.9
20260509074814 58 187 0.0 10.0 0.00 0.01 0.00 15 1011.0
20260509074030 58 182 0.0 4.0 0.00 0.01 0.00 15 1011.1
20260509073501 58 182 0.0 7.0 0.00 0.01 0.00 15 1011.2
20260509072943 58 182 0.0 7.0 0.00 0.01 0.00 16 1011.1
20260509072419 58 163 0.0 3.0 0.00 0.01 0.00 16 1011.2
20260509072114 58 214 0.0 3.0 0.00 0.01 0.00 16 1011.2
20260509071328 58 167 0.0 3.0 0.00 0.01 0.00 16 1011.3
20260509070809 58 293 1.0 7.0 0.00 0.01 0.00 16 1011.3
20260509070229 58 166 1.0 3.0 0.00 0.01 0.00 16 1011.2
20260509065704 58 149 1.0 13.0 0.00 0.01 0.00 15 1011.2
20260509065115 58 187 0.0 0.0 0.00 0.01 0.00 13 1011.1
20260509064757 57 175 0.0 5.0 0.00 0.01 0.00 12 1011.2
20260509064014 57 174 0.0 2.0 0.00 0.01 0.00 11 1011.3
20260509063438 57 173 0.0 2.0 0.00 0.01 0.00 10 1011.4
20260509063357 57 172 0.0 4.0 0.00 0.01 0.00 9 1011.5
20260509062345 57 172 0.0 4.0 0.00 0.01 0.00 8 1011.5
20260509061846 57 172 0.0 2.0 0.00 0.01 0.00 8 1011.5
20260509061236 57 172 0.0 2.0 0.00 0.01 0.00 8 1011.5
20260509060655 57 172 0.0 4.0 0.00 0.01 0.00 7 1011.5
20260509060127 57 172 0.0 4.0 0.00 0.01 0.00 7 1011.4
20260509055855 57 173 0.0 0.0 0.00 0.01 0.00 7 1011.4
20260509055603 57 173 0.0 0.0 0.00 0.01 0.00 7 1011.5
20260509054451 56 173 0.0 5.0 0.00 0.01 0.00 8 1011.4
20260509053911 56 173 0.0 4.0 0.00 0.01 0.00 10 1011.4
20260509053403 56 173 0.0 4.0 0.00 0.01 0.00 11 1011.4
20260509052826 56 173 0.0 7.0 0.00 0.01 0.00 13 1011.4
20260509052254 56 174 0.0 7.0 0.00 0.01 0.00 15 1011.4
20260509051949 56 173 0.0 0.0 0.00 0.01 0.00 17 1011.5
20260509051155 56 173 0.0 4.0 0.00 0.01 0.00 19 1011.6
20260509050614 56 174 0.0 3.0 0.00 0.01 0.00 21 1011.5
20260509050058 56 174 0.0 3.0 0.00 0.01 0.00 23 1011.5
20260509045517 56 173 0.0 2.0 0.00 0.01 0.00 24 1011.4
20260509044949 56 173 0.0 5.0 0.00 0.01 0.00 26 1011.5
20260509044435 56 173 0.0 5.0 0.00 0.01 0.00 27 1011.5
20260509043905 56 175 0.0 4.0 0.00 0.01 0.00 28 1011.6
20260509043334 56 175 0.0 2.0 0.00 0.01 0.00 30 1011.7
20260509042750 56 175 0.0 2.0 0.00 0.01 0.00 31 1011.8
20260509042228 56 175 0.0 5.0 0.00 0.01 0.00 33 1011.8
20260509041920 56 175 0.0 5.0 0.00 0.01 0.00 34 1011.9
20260509041405 56 173 0.0 3.0 0.00 0.01 0.00 36 1011.9
20260509040609 56 173 0.0 1.0 0.00 0.01 0.00 38 1012.0
20260509040059 57 173 0.0 0.0 0.00 0.01 0.00 40 1012.0
20260509035742 57 173 0.0 2.0 0.00 0.01 0.01 41 1012.0
20260509034951 57 173 0.0 2.0 0.00 0.01 0.01 43 1012.0
20260509034425 57 173 0.0 0.0 0.00 0.01 0.01 44 1012.1
20260509033900 57 173 0.0 4.0 0.00 0.01 0.01 46 1012.1
20260509033329 57 173 0.0 1.0 0.00 0.01 0.01 47 1012.1
20260509033240 57 180 0.0 4.0 0.00 0.01 0.01 49 1012.0
20260509032228 57 178 0.0 2.0 0.00 0.01 0.01 51 1012.1
20260509031700 57 178 0.0 2.0 0.00 0.01 0.01 52 1012.1
20260509031129 58 179 0.0 2.0 0.00 0.01 0.01 53 1012.1
20260509030601 58 179 0.0 2.0 0.00 0.01 0.01 54 1012.1
20260509030049 58 179 0.0 0.0 0.00 0.01 0.01 54 1012.2
20260509025507 58 179 0.0 5.0 0.00 0.01 0.01 55 1012.2
20260509024934 58 179 0.0 5.0 0.00 0.01 0.01 55 1012.1
20260509024411 58 180 0.0 3.0 0.00 0.01 0.01 55 1012.0
20260509023843 58 180 0.0 3.0 0.00 0.01 0.01 55 1012.0
20260509023319 58 178 0.0 2.0 0.00 0.01 0.01 55 1012.1
20260509022757 58 184 0.0 0.0 0.00 0.01 0.01 55 1012.1
20260509022228 58 188 0.0 6.0 0.00 0.01 0.01 55 1012.1
20260509021705 58 190 0.0 3.0 0.00 0.01 0.01 55 1012.1
20260509021404 58 190 0.0 3.0 0.00 0.01 0.01 55 1012.1
20260509020609 58 190 0.0 4.0 0.00 0.01 0.01 55 1012.1
20260509020316 58 190 0.0 4.0 0.00 0.01 0.01 54 1012.1
20260509015454 58 191 0.0 4.0 0.00 0.01 0.01 54 1012.1
20260509014927 58 191 0.0 4.0 0.00 0.01 0.01 54 1012.1
20260509014625 58 196 0.0 3.0 0.00 0.01 0.01 54 1012.1
20260509013827 59 196 0.0 4.0 0.00 0.01 0.01 54 1012.0
20260509013304 59 196 0.0 4.0 0.00 0.01 0.01 53 1011.9
20260509012738 59 197 0.0 5.0 0.00 0.01 0.01 53 1011.8
20260509012218 59 197 0.0 5.0 0.00 0.01 0.01 53 1011.7
20260509011918 59 197 0.0 2.0 0.00 0.01 0.01 53 1011.7
20260509011128 60 197 0.0 4.0 0.00 0.01 0.01 53 1011.6
20260509010607 60 197 0.0 4.0 0.00 0.01 0.01 53 1011.6
20260509010059 60 197 0.0 4.0 0.00 0.01 0.01 52 1011.6
20260509005520 60 197 0.0 4.0 0.00 0.01 0.01 52 1011.5
20260509004944 60 197 0.0 4.0 0.00 0.01 0.01 52 1011.5
20260509004422 60 230 0.0 4.0 0.00 0.01 0.01 52 1011.4
20260509003900 60 190 0.0 2.0 0.00 0.01 0.01 52 1011.4
20260509003613 60 190 0.0 0.0 0.00 0.01 0.01 51 1011.3
20260509003435 60 190 0.0 0.0 0.00 0.01 0.01 51 1011.3
20260509003019 61 190 0.0 3.0 0.00 0.01 0.01 52 1011.4
20260509002231 61 190 0.0 5.0 0.00 0.01 0.01 51 1011.4
20260509001731 61 148 0.0 5.0 0.00 0.01 0.01 51 1011.3
20260509001133 61 165 0.0 2.0 0.00 0.01 0.01 51 1011.2
20260509000536 61 165 0.0 3.0 0.00 0.01 0.01 51 1011.0
20260509000016 62 165 0.0 3.0 0.00 0.01 0.01 51 1011.0
20260508235452 62 165 0.0 0.0 0.00 0.01 0.01 51 1011.0
20260508234931 62 165 0.0 4.0 0.00 0.01 0.01 51 1011.1
20260508234406 62 165 0.0 4.0 0.00 0.01 0.01 51 1011.1
20260508233845 62 165 0.0 0.0 0.00 0.01 0.01 51 1011.0
20260508233323 62 165 0.0 3.0 0.00 0.01 0.01 50 1011.0
20260508232753 62 165 0.0 3.0 0.00 0.01 0.01 50 1010.8
20260508232219 62 165 0.0 3.0 0.00 0.01 0.01 51 1010.8
20260508231902 62 165 0.0 3.0 0.00 0.01 0.01 51 1010.8
20260508231120 62 165 0.0 0.0 0.00 0.01 0.01 51 1010.9
20260508230820 62 165 0.0 5.0 0.00 0.01 0.01 52 1010.8
20260508230051 62 165 0.0 5.0 0.00 0.01 0.01 52 1010.8
20260508225502 62 157 0.0 4.0 0.00 0.01 0.01 54 1010.8
20260508224929 62 160 0.0 3.0 0.00 0.01 0.01 55 1010.8
20260508224406 62 159 0.0 5.0 0.00 0.01 0.01 56 1010.8